Weather History for Rome, OR

Change the Weather History Date:

Saturday, February 16, 2013

  Actual Average Record
Temperature  
Mean Temperature 43 °F 34 °F  
Max Temperature 60 °F 45 °F 60 °F (2013)
Min Temperature 25 °F 22 °F 0 °F (1956)
Degree Days  
Heating Degree Days 22 31  
Month to date heating degree days 466 526  
Since 1 July heating degree days 4258 4375  
Cooling Degree Days 0 0  
Month to date cooling degree days 0 0  
Year to date cooling degree days 0 0  
Moisture  
Dew Point 24 °F    
Average Humidity 54    
Maximum Humidity 85    
Minimum Humidity 23    
Precipitation  
Precipitation 0.00 in 0.02 in 0.39 in (1976)
Month to date precipitation 0.11 0.42  
Year to date precipitation 0.66 1.07  
Sea Level Pressure  
Sea Level Pressure 30.15 in    
Wind  
Wind Speed 9 mph (SW)    
Max Wind Speed 22 mph    
Max Gust Speed 28 mph    
T = Trace of Precipitation, MM = Missing Value Source: NWS Daily Summary

Daily Weather History Graph

Daily Weather History Graph

Search for Another Location

Airport:

Trip Planner

Search our weather history database for the weather conditions in past years. The results will help you decide how hot, cold, wet, or windy it might be!

Date:

Astronomy

Feb. 16, 2013 Rise Set
Actual Time 6:46 AM PST 5:25 PM PST
Civil Twilight 6:17 AM PST 5:54 PM PST
Nautical Twilight 5:44 AM PST 6:27 PM PST
Astronomical Twilight 5:12 AM PST 6:59 PM PST
Moon 9:52 AM PST (2/16) No Moon Set
Length of Visible Light 11h 36m
Length of Day
10h 38m
Waxing Crescent, 40% of the Moon is Illuminated
Feb 16
Waxing Crescent
Feb 17
First Quarter
Feb 25
Full
Mar 4
Last Quarter
Mar 11
New

Hourly Weather History & Observations

Time (PST) Temp. Windchill Dew Point Humidity Pressure Visibility Wind Dir Wind Speed Gust Speed Precip Events Conditions
12:52 AM 30.0 °F - 25.0 °F 82% 30.34 in - Calm Calm - N/A   Unknown
1:52 AM 26.1 °F 21.9 °F 21.9 °F 84% 30.33 in - SSE 3.5 mph - N/A   Unknown
2:52 AM 30.9 °F 22.8 °F 26.1 °F 82% 30.29 in - SSE 9.2 mph - N/A   Unknown
3:52 AM 32.0 °F 23.6 °F 27.0 °F 82% 30.27 in - SSE 10.4 mph - N/A   Unknown
4:52 AM 28.9 °F - 24.1 °F 82% 30.28 in - Calm Calm - N/A   Unknown
5:52 AM 30.0 °F 24.1 °F 25.0 °F 82% 30.29 in - South 5.8 mph - N/A   Unknown
6:52 AM 30.0 °F 26.5 °F 24.1 °F 79% 30.30 in - NNW 3.5 mph - N/A   Unknown
7:52 AM 37.0 °F 34.5 °F 28.9 °F 73% 30.28 in - South 3.5 mph - N/A   Unknown
8:52 AM 43.0 °F 41.3 °F 30.0 °F 60% 30.24 in - NW 3.5 mph - N/A   Unknown
9:52 AM 46.0 °F 43.9 °F 30.0 °F 54% 30.23 in - NNW 4.6 mph - N/A   Unknown
10:52 AM 52.0 °F - 28.0 °F 40% 30.19 in - Variable 6.9 mph - N/A   Unknown
11:52 AM 57.0 °F - 28.0 °F 33% 30.15 in - SW 12.7 mph - N/A   Unknown
12:52 PM 59.0 °F - 24.1 °F 26% 30.11 in - SW 16.1 mph 24.2 mph N/A   Unknown
1:52 PM 60.1 °F - 23.0 °F 24% 30.07 in - SW 19.6 mph 25.3 mph N/A   Unknown
2:52 PM 57.9 °F - 21.9 °F 25% 30.04 in - SW 17.3 mph 23.0 mph N/A   Unknown
3:52 PM 57.0 °F - 21.9 °F 26% 30.02 in - SSW 18.4 mph 26.5 mph N/A   Unknown
4:52 PM 52.0 °F - 21.9 °F 31% 30.02 in - SW 6.9 mph - N/A   Unknown
5:52 PM 48.0 °F - 21.9 °F 36% 30.01 in - SSW 10.4 mph - N/A   Unknown
6:52 PM 46.9 °F - 23.0 °F 39% 30.00 in - South 12.7 mph - N/A   Unknown
7:52 PM 45.0 °F 42.6 °F 21.9 °F 40% 30.00 in - Variable 4.6 mph 17.3 mph N/A   Unknown
8:52 PM 42.1 °F 34.5 °F 27.0 °F 55% 30.00 in - WNW 15.0 mph 20.7 mph N/A   Unknown
9:52 PM 42.1 °F 35.7 °F 25.0 °F 51% 30.01 in - WNW 11.5 mph 17.3 mph N/A   Unknown
10:52 PM 41.0 °F 35.8 °F 19.9 °F 43% 30.01 in - NW 8.1 mph - N/A   Unknown
11:52 PM 39.0 °F 31.4 °F 17.1 °F 41% 30.02 in - NW 12.7 mph 19.6 mph N/A   Unknown